EB1BCG-1 Weather Reports


Display with metric or nautical units.
time (UTC)temp
F
wind
direction
speed
MPH
gust
MPH
rain 1hr
in
rain 24hr
in
rain mn
in
humidity
%
barometer
mb
20260507065429 45 68 0.0 0.0 0.00 0.00 0.00 97 1011.5
20260507064420 43 68 0.0 0.0 0.00 0.00 0.00 98 1011.4
20260507063414 43 68 0.0 0.0 0.00 0.00 0.00 99 1011.3
20260507062406 43 68 0.0 0.0 0.00 0.00 0.00 99 1011.3
20260507061358 43 68 0.0 0.0 0.00 0.00 0.00 99 1011.5
20260507060354 43 68 0.0 0.0 0.00 0.00 0.00 99 1011.5
20260507055344 42 68 0.0 0.0 0.00 0.00 0.00 99 1011.4
20260507054337 41 68 0.0 0.0 0.00 0.00 0.00 99 1011.4
20260507053334 40 68 0.0 0.0 0.00 0.00 0.00 99 1011.4
20260507052323 40 68 0.0 0.0 0.00 0.00 0.00 99 1011.4
20260507051316 40 68 0.0 0.0 0.00 0.00 0.00 99 1011.4
20260507050309 39 68 0.0 0.0 0.00 0.00 0.00 99 1011.4
20260507045306 39 68 0.0 0.0 0.00 0.00 0.00 99 1011.4
20260507044255 39 68 0.0 0.0 0.00 0.00 0.00 99 1011.4
20260507043257 39 68 0.0 0.0 0.00 0.00 0.00 99 1011.4
20260507042242 39 68 0.0 0.0 0.00 0.00 0.00 99 1011.4
20260507041235 39 68 0.0 0.0 0.00 0.00 0.00 99 1011.4
20260507040228 39 68 0.0 0.0 0.00 0.00 0.00 99 1011.5
20260507035222 39 68 0.0 0.0 0.00 0.00 0.00 99 1011.5
20260507034217 38 68 0.0 0.0 0.00 0.00 0.00 99 1011.6
20260507033207 38 68 0.0 0.0 0.00 0.00 0.00 99 1011.6
20260507032200 39 68 0.0 0.0 0.00 0.00 0.00 99 1011.5
20260507031154 38 68 0.0 0.0 0.00 0.00 0.00 99 1011.6
20260507030146 39 68 0.0 0.0 0.00 0.00 0.00 99 1011.6
20260507025139 38 68 0.0 0.0 0.00 0.00 0.00 99 1011.6
20260507024134 39 68 0.0 0.0 0.00 0.00 0.00 99 1011.6
20260507023125 39 68 0.0 0.0 0.00 0.00 0.00 99 1011.5
20260507022120 39 68 0.0 0.0 0.00 0.00 0.00 99 1011.6
20260507021121 39 68 0.0 0.0 0.00 0.00 0.00 99 1011.7
20260507020104 40 68 0.0 0.0 0.00 0.00 0.00 99 1011.8
20260507015057 41 68 0.0 0.0 0.00 0.00 0.00 99 1011.8
20260507014054 41 68 0.0 0.0 0.00 0.00 0.00 99 1011.7
20260507013042 41 68 0.0 0.0 0.00 0.00 0.00 99 1011.7
20260507012035 40 68 0.0 0.0 0.00 0.00 0.00 99 1011.9
20260507011028 40 68 0.0 0.0 0.00 0.00 0.00 99 1012.0
20260507010021 41 68 0.0 0.0 0.00 0.00 0.00 99 1012.0
20260507005014 41 68 0.0 0.0 0.00 0.00 0.00 99 1012.0
20260507004007 42 68 0.0 0.0 0.00 0.00 0.00 99 1012.0
20260507003000 42 68 0.0 0.0 0.00 0.00 0.00 99 1012.1
20260507001954 42 68 0.0 0.0 0.00 0.00 0.00 99 1012.1
20260507000946 42 68 0.0 0.0 0.00 0.00 0.00 99 1012.2
20260506235939 42 68 0.0 0.0 0.00 0.00 0.00 99 1012.3
20260506234933 42 113 0.0 0.0 0.00 0.00 0.00 99 1012.3
20260506233927 43 68 0.0 0.0 0.00 0.00 0.00 99 1012.3
20260506232920 43 68 0.0 0.0 0.00 0.00 0.00 99 1012.3
20260506231912 43 68 0.0 1.0 0.00 0.00 0.00 99 1012.2
20260506230905 43 45 0.0 0.0 0.00 0.00 0.00 99 1012.2
20260506225858 43 68 0.0 2.0 0.00 0.00 0.00 99 1012.2
20260506224852 43 68 0.0 1.0 0.00 0.00 0.00 99 1012.0
20260506223845 43 68 0.0 1.0 0.00 0.00 0.00 99 1012.0
20260506222837 43 68 0.0 2.0 0.00 0.00 0.00 99 1012.1
20260506221832 43 68 0.0 3.0 0.00 0.00 0.00 99 1012.1
20260506220823 44 68 0.0 1.0 0.00 0.00 0.00 99 1012.1
20260506215816 44 68 0.0 0.0 0.00 0.00 0.00 99 1012.1
20260506214812 44 68 1.0 6.0 0.00 0.00 0.00 99 1012.2
20260506213802 44 68 0.0 0.0 0.00 0.00 0.00 99 1012.1
20260506212755 44 45 0.0 0.0 0.00 0.00 0.00 98 1012.1
20260506211748 44 68 0.0 0.0 0.00 0.00 0.00 98 1012.2
20260506210741 45 45 0.0 1.0 0.00 0.00 0.00 96 1012.0
20260506205734 45 68 0.0 0.0 0.00 0.00 0.00 94 1012.0
20260506204727 45 68 0.0 2.0 0.00 0.00 0.00 92 1012.0
20260506203721 46 68 0.0 1.0 0.00 0.00 0.00 91 1011.7
20260506202715 46 68 0.0 1.0 0.00 0.00 0.00 89 1011.5
20260506201712 46 45 0.0 1.0 0.00 0.00 0.00 88 1011.4
20260506200701 47 45 0.0 4.0 0.00 0.00 0.00 86 1011.4
20260506195654 47 45 0.0 3.0 0.00 0.00 0.00 83 1011.3
20260506194647 47 68 0.0 3.0 0.00 0.00 0.00 80 1011.2
20260506193640 48 45 0.0 3.0 0.00 0.00 0.00 78 1011.0
20260506192633 48 45 0.0 3.0 0.00 0.00 0.00 76 1011.0
20260506191626 49 68 0.0 3.0 0.00 0.00 0.00 73 1010.8
20260506190619 50 68 0.0 2.0 0.00 0.00 0.00 71 1010.7
20260506185613 50 113 0.0 2.0 0.00 0.00 0.00 68 1010.6
20260506184606 51 68 0.0 5.0 0.00 0.00 0.00 66 1010.4
20260506183600 51 23 0.0 6.0 0.00 0.00 0.00 64 1010.3
20260506182553 52 45 0.0 5.0 0.00 0.00 0.00 64 1010.2
20260506181546 52 45 0.0 6.0 0.00 0.00 0.00 64 1010.1
20260506180539 52 68 0.0 6.0 0.00 0.00 0.00 63 1010.0
20260506175533 53 45 0.0 6.0 0.00 0.00 0.00 62 1009.9
20260506174526 53 68 1.0 7.0 0.00 0.00 0.00 59 1009.9
20260506173520 54 45 1.0 11.0 0.00 0.00 0.00 57 1009.9
20260506172513 55 45 3.0 9.0 0.00 0.00 0.00 56 1009.8
20260506171506 56 45 3.0 9.0 0.00 0.00 0.00 56 1009.8
20260506170459 56 45 0.0 11.0 0.00 0.00 0.00 55 1009.9
20260506165453 56 45 0.0 5.0 0.00 0.00 0.00 53 1010.0
20260506164446 57 68 2.0 9.0 0.00 0.00 0.00 53 1010.0
20260506163440 58 113 0.0 9.0 0.00 0.00 0.00 51 1010.0
20260506162434 58 23 3.0 10.0 0.00 0.00 0.00 50 1009.8
20260506161431 58 68 2.0 7.0 0.00 0.00 0.00 48 1009.8
20260506160422 59 68 1.0 11.0 0.00 0.00 0.00 45 1009.8
20260506155416 61 68 3.0 11.0 0.00 0.00 0.00 43 1009.8
20260506154411 67 68 0.0 3.0 0.00 0.00 0.00 44 1009.5
20260506153402 63 203 0.0 0.0 0.00 0.00 0.00 42 1009.7
20260506152356 61 203 0.0 0.0 0.00 0.00 0.00 40 1009.7
20260506151351 63 203 0.0 0.0 0.00 0.00 0.00 40 1009.8
20260506150342 63 203 0.0 0.0 0.00 0.00 0.00 40 1009.8
20260506145336 64 203 0.0 3.0 0.00 0.00 0.00 39 1009.8
20260506144331 71 203 0.0 2.0 0.00 0.00 0.00 37 1009.7
20260506143322 69 203 0.0 3.0 0.00 0.00 0.00 40 1009.9
20260506142322 67 203 0.0 0.0 0.00 0.00 0.00 38 1010.1
20260506141311 68 203 1.0 5.0 0.00 0.00 0.00 39 1010.2
20260506140302 68 315 0.0 3.0 0.00 0.00 0.00 42 1010.2
20260506135255 68 225 0.0 2.0 0.00 0.00 0.00 38 1010.3
20260506134251 68 270 0.0 4.0 0.00 0.00 0.00 40 1010.4
20260506133241 70 270 0.0 0.0 0.00 0.00 0.00 41 1010.4
20260506132234 69 270 0.0 3.0 0.00 0.00 0.00 39 1010.5
20260506131227 67 270 0.0 2.0 0.00 0.00 0.00 38 1010.6
20260506130221 66 270 0.0 3.0 0.00 0.00 0.00 41 1010.7
20260506125214 70 248 1.0 3.0 0.00 0.00 0.00 40 1010.7
20260506124207 69 203 0.0 4.0 0.00 0.00 0.00 40 1010.8
20260506123201 68 180 1.0 5.0 0.00 0.00 0.00 42 1010.8
20260506122154 67 203 0.0 1.0 0.00 0.00 0.00 39 1010.9
20260506121147 69 225 0.0 6.0 0.00 0.00 0.00 40 1010.9
20260506120140 66 270 0.0 5.0 0.00 0.00 0.00 38 1010.9
20260506115134 69 203 0.0 0.0 0.00 0.00 0.00 41 1010.9
20260506114127 67 225 0.0 2.0 0.00 0.00 0.00 42 1011.2
20260506113119 65 203 1.0 7.0 0.00 0.00 0.00 42 1011.3
20260506112112 65 225 0.0 0.0 0.00 0.00 0.00 44 1011.3
20260506110119 62 225 0.0 0.0 0.00 0.00 0.00 45 1011.5
20260506105112 63 225 1.0 4.0 0.00 0.00 0.00 49 1011.6
20260506104105 61 225 0.0 4.0 0.00 0.00 0.00 47 1011.8
20260506103058 59 158 0.0 0.0 0.00 0.00 0.00 51 1011.8
20260506102053 59 225 0.0 0.0 0.00 0.00 0.00 49 1011.8
20260506100037 55 248 0.0 0.0 0.00 0.00 0.00 53 1012.1
20260506095027 57 270 0.0 0.0 0.00 0.00 0.00 55 1012.0
20260506094019 57 270 0.0 0.0 0.00 0.00 0.00 54 1011.9
20260506093013 52 270 0.0 0.0 0.00 0.00 0.00 58 1012.0
20260506092005 56 270 0.0 0.0 0.00 0.00 0.00 57 1011.8
20260506090957 51 315 0.0 0.0 0.00 0.00 0.00 62 1012.0
20260506085953 50 315 0.0 1.0 0.00 0.00 0.00 66 1012.0
20260506084942 51 113 0.0 0.0 0.00 0.00 0.00 67 1012.0
20260506083936 48 68 0.0 0.0 0.00 0.00 0.00 68 1012.0
20260506082928 47 45 0.0 4.0 0.00 0.00 0.00 75 1012.0
20260506081921 46 45 0.0 0.0 0.00 0.00 0.00 79 1012.2
20260506072845 41 338 0.0 0.0 0.00 0.00 0.00 99 1012.5
20260506071838 40 338 0.0 0.0 0.00 0.00 0.00 99 1012.5
20260506070833 39 338 0.0 0.0 0.00 0.00 0.00 99 1012.6